Вернуться в каталог

FENGYUN 1C DEB

LostSSO
NORAD 30958·DEBRIS·🇨🇳 China

Запущен May 10, 1999 с Taiyuan Satellite Launch Center

Loading…

Ближайшие Пролёты (ближайшие 24 часа)

TLE

УстаревшееSource: Space-Track

Эпоха: Oct 12, 2024, 10:35 UTC

1 30958U 99025BAY 24286.44130266  .00050669  00000-0  81278-2 0  9992
2 30958  97.9626 152.4276 0079125 107.9841 253.0009 14.69345679563149

Отслеживайте FENGYUN 1C DEB в реальном времени с AllMySat

Download on the App Store